Litchfield, MN

4:55 AM CST on December 03, 2016 (GMT -0600)
Litchfield Municipal

Weather History for KLJF - October, 2014

Change the Weather History Date:

Saturday, October 25, 2014

  Actual Average Record
Temperature  
Mean Temperature 52 °F -  
Max Temperature 62 °F 57 °F 81 °F (1989)
Min Temperature 42 °F 36 °F 21 °F (1957)
Degree Days  
Heating Degree Days 13    
Growing Degree Days 2 (Base 50)    
Moisture  
Dew Point 32 °F    
Average Humidity 42    
Maximum Humidity 76    
Minimum Humidity 20    
Precipitation  
Precipitation 0.00 in - - ()
Sea Level Pressure  
Sea Level Pressure 30.05 in    
Wind  
Wind Speed 9 mph (WNW)    
Max Wind Speed 20 mph    
Max Gust Speed 26 mph    
Visibility 10 miles    
Events      
Averages and records for this station are not official NWS values.
T = Trace of Precipitation, MM = Missing Value Source: NWS Daily Summary

Daily Weather History Graph

Daily Weather History Graph

Search for Another Location

Airport or City:

Trip Planner

Search our weather history database for the weather conditions in past years. The results will help you decide how hot, cold, wet, or windy it might be!

Date:

Astronomy

Oct. 25, 2014 Rise Set
Actual Time 7:47 AM CDT 6:16 PM CDT
Civil Twilight 7:16 AM CDT 6:46 PM CDT
Nautical Twilight 6:42 AM CDT 7:20 PM CDT
Astronomical Twilight 6:08 AM CDT 7:54 PM CDT
Moon 9:30 AM CDT (10/25) 7:36 PM CDT (10/25)
Length of Visible Light 11h 29m
Length of Day
10h 29m
Waxing Crescent, 3% of the Moon is Illuminated
Oct 25
Waxing Crescent
Oct 30
First Quarter
Nov 6
Full
Nov 14
Last Quarter
Nov 22
New

Hourly Weather History & Observations

Time (CDT) Temp. Windchill Dew Point Humidity Pressure Visibility Wind Dir Wind Speed Gust Speed Precip Events Conditions
12:12 AM 62.6 °F - 37.4 °F 39% 29.93 in 10.0 mi NW 10.4 mph - N/A   Scattered Clouds
12:33 AM 62.6 °F - 35.6 °F 37% 29.94 in 10.0 mi NW 11.5 mph - N/A   Scattered Clouds
12:53 AM 62.6 °F - 35.6 °F 37% 29.95 in 10.0 mi WNW 8.1 mph - N/A   Clear
1:12 AM 60.8 °F - 35.6 °F 39% 29.96 in 10.0 mi NW 9.2 mph - N/A   Clear
1:33 AM 60.8 °F - 35.6 °F 39% 29.97 in 10.0 mi WNW 5.8 mph - N/A   Clear
1:53 AM 59.0 °F - 35.6 °F 42% 29.97 in 10.0 mi WNW 5.8 mph - N/A   Clear
2:12 AM 59.0 °F - 37.4 °F 45% 29.98 in 10.0 mi WNW 6.9 mph - N/A   Clear
2:33 AM 59.0 °F - 37.4 °F 45% 29.98 in 10.0 mi WNW 8.1 mph - N/A   Clear
2:53 AM 59.0 °F - 35.6 °F 42% 29.99 in 10.0 mi WNW 9.2 mph - N/A   Clear
3:12 AM 57.2 °F - 35.6 °F 44% 29.99 in 10.0 mi WNW 9.2 mph - N/A   Clear
3:33 AM 57.2 °F - 35.6 °F 44% 29.99 in 10.0 mi WNW 9.2 mph - N/A   Clear
3:53 AM 57.2 °F - 35.6 °F 44% 30.00 in 10.0 mi WNW 8.1 mph - N/A   Clear
4:12 AM 55.4 °F - 35.6 °F 47% 30.01 in 10.0 mi WNW 10.4 mph 16.1 mph N/A   Scattered Clouds
4:33 AM 55.4 °F - 35.6 °F 47% 30.00 in 10.0 mi WNW 9.2 mph - N/A   Scattered Clouds
4:53 AM 55.4 °F - 35.6 °F 47% 30.01 in 10.0 mi WNW 9.2 mph - N/A   Clear
5:12 AM 55.4 °F - 35.6 °F 47% 30.01 in 10.0 mi NW 9.2 mph 18.4 mph N/A   Clear
5:33 AM 55.4 °F - 35.6 °F 47% 30.01 in 10.0 mi NW 10.4 mph - N/A   Clear
5:53 AM 55.4 °F - 33.8 °F 44% 30.02 in 10.0 mi NW 10.4 mph 17.3 mph N/A   Clear
6:12 AM 53.6 °F - 33.8 °F 47% 30.03 in 10.0 mi NW 9.2 mph - N/A   Clear
6:33 AM 53.6 °F - 33.8 °F 47% 30.03 in 10.0 mi NW 9.2 mph - N/A   Clear
6:53 AM 53.6 °F - 33.8 °F 47% 30.03 in 10.0 mi NW 9.2 mph - N/A   Clear
7:12 AM 53.6 °F - 35.6 °F 51% 30.04 in 10.0 mi NW 10.4 mph 16.1 mph N/A   Clear
7:33 AM 53.6 °F - 33.8 °F 47% 30.04 in 10.0 mi NW 10.4 mph 17.3 mph N/A   Clear
7:53 AM 51.8 °F - 33.8 °F 50% 30.05 in 10.0 mi NW 10.4 mph - N/A   Clear
8:12 AM 51.8 °F - 33.8 °F 50% 30.05 in 10.0 mi NW 11.5 mph - N/A   Clear
8:33 AM 51.8 °F - 33.8 °F 50% 30.07 in 10.0 mi NW 9.2 mph 17.3 mph N/A   Clear
8:53 AM 51.8 °F - 33.8 °F 50% 30.07 in 10.0 mi NW 9.2 mph - N/A   Clear
9:12 AM 51.8 °F - 33.8 °F 50% 30.08 in 10.0 mi NW 9.2 mph - N/A   Clear
9:33 AM 53.6 °F - 33.8 °F 47% 30.08 in 10.0 mi NW 9.2 mph - N/A   Clear
9:52 AM 53.6 °F - 33.8 °F 47% 30.08 in 10.0 mi NW 10.4 mph - N/A   Clear
10:13 AM 55.4 °F - 32.0 °F 41% 30.09 in 10.0 mi NW 12.7 mph 17.3 mph N/A   Clear
10:33 AM 55.4 °F - 32.0 °F 41% 30.09 in 10.0 mi NW 10.4 mph - N/A   Clear
10:52 AM 55.4 °F - 32.0 °F 41% 30.09 in 10.0 mi NW 10.4 mph - N/A   Clear
11:13 AM 55.4 °F - 30.2 °F 38% 30.09 in 10.0 mi WNW 16.1 mph 20.7 mph N/A   Clear
11:33 AM 57.2 °F - 30.2 °F 36% 30.10 in 10.0 mi NW 11.5 mph - N/A   Clear
11:52 AM 59.0 °F - 30.2 °F 34% 30.10 in 10.0 mi NW 15.0 mph 23.0 mph N/A   Clear
12:13 PM 60.8 °F - 28.4 °F 29% 30.10 in 10.0 mi WNW 17.3 mph 23.0 mph N/A   Clear
12:33 PM 60.8 °F - 28.4 °F 29% 30.09 in 10.0 mi NW 13.8 mph 25.3 mph N/A   Clear
12:52 PM 60.8 °F - 30.2 °F 31% 30.09 in 10.0 mi WNW 18.4 mph 25.3 mph N/A   Clear
1:13 PM 62.6 °F - 28.4 °F 27% 30.09 in 10.0 mi WNW 19.6 mph 25.3 mph N/A   Clear
1:33 PM 62.6 °F - 26.6 °F 26% 30.08 in 10.0 mi NW 17.3 mph 26.5 mph N/A   Clear
1:52 PM 62.6 °F - 28.4 °F 27% 30.08 in 10.0 mi WNW 13.8 mph 25.3 mph N/A   Clear
2:13 PM 62.6 °F - 28.4 °F 27% 30.08 in 10.0 mi WNW 15.0 mph 23.0 mph N/A   Clear
2:33 PM 62.6 °F - 26.6 °F 26% 30.08 in 10.0 mi NW 15.0 mph 21.9 mph N/A   Clear
2:52 PM 62.6 °F - 26.6 °F 26% 30.08 in 10.0 mi WNW 12.7 mph 19.6 mph N/A   Clear
3:13 PM 62.6 °F - 24.8 °F 24% 30.07 in 10.0 mi NW 17.3 mph - N/A   Clear
3:33 PM 62.6 °F - 24.8 °F 24% 30.07 in 10.0 mi NW 12.7 mph 19.6 mph N/A   Clear
3:53 PM 62.6 °F - 21.2 °F 20% 30.07 in 10.0 mi NW 17.3 mph 23.0 mph N/A   Clear
4:12 PM 62.6 °F - 24.8 °F 24% 30.07 in 10.0 mi NW 11.5 mph - N/A   Clear
4:33 PM 62.6 °F - 24.8 °F 24% 30.07 in 10.0 mi WNW 11.5 mph 16.1 mph N/A   Clear
4:53 PM 60.8 °F - 26.6 °F 27% 30.07 in 10.0 mi WNW 10.4 mph 17.3 mph N/A   Clear
5:12 PM 60.8 °F - 24.8 °F 25% 30.08 in 10.0 mi WNW 11.5 mph - N/A   Clear
5:33 PM 60.8 °F - 24.8 °F 25% 30.08 in 10.0 mi WNW 11.5 mph - N/A   Clear
5:53 PM 59.0 °F - 24.8 °F 27% 30.08 in 10.0 mi NW 9.2 mph - N/A   Clear
6:12 PM 57.2 °F - 24.8 °F 29% 30.08 in 10.0 mi NW 8.1 mph - N/A   Clear
6:33 PM 55.4 °F - 24.8 °F 31% 30.08 in 10.0 mi NW 6.9 mph - N/A   Clear
6:53 PM 55.4 °F - 26.6 °F 33% 30.08 in 10.0 mi West 4.6 mph - N/A   Clear
7:12 PM 51.8 °F - 33.8 °F 50% 30.07 in 10.0 mi WNW 3.5 mph - N/A   Clear
7:33 PM 50.0 °F - 30.2 °F 47% 30.08 in 10.0 mi West 3.5 mph - N/A   Clear
7:53 PM 48.2 °F - 26.6 °F 43% 30.08 in 10.0 mi West 3.5 mph - N/A   Clear
8:12 PM 48.2 °F - 30.2 °F 50% 30.07 in 10.0 mi West 3.5 mph - N/A   Clear
8:33 PM 46.4 °F 45.2 °F 30.2 °F 53% 30.07 in 10.0 mi West 3.5 mph - N/A   Clear
8:53 PM 44.6 °F - 33.8 °F 66% 30.06 in 10.0 mi Calm Calm - N/A   Clear
9:12 PM 46.4 °F 45.2 °F 33.8 °F 62% 30.07 in 10.0 mi West 3.5 mph - N/A   Clear
9:33 PM 46.4 °F 45.2 °F 28.4 °F 50% 30.07 in 10.0 mi WSW 3.5 mph - N/A   Clear
9:52 PM 44.6 °F - 28.4 °F 53% 30.07 in 10.0 mi Calm Calm - N/A   Clear
10:13 PM 44.6 °F - 28.4 °F 53% 30.07 in 10.0 mi Calm Calm - N/A   Clear
10:33 PM 44.6 °F - 33.8 °F 66% 30.06 in 10.0 mi Calm Calm - N/A   Clear
10:52 PM 42.8 °F - 33.8 °F 70% 30.06 in 10.0 mi Calm Calm - N/A   Clear
11:13 PM 42.8 °F - 33.8 °F 70% 30.06 in 10.0 mi Calm Calm - N/A   Clear
11:32 PM 42.8 °F - 33.8 °F 70% 30.06 in 10.0 mi Calm Calm - N/A   Clear
11:53 PM 42.8 °F - 35.6 °F 76% 30.06 in 10.0 mi Calm Calm - N/A   Clear